Regional Weather Roundup
Issued by NWS

Home | Current Version | Previous Version | Graphics & Text | Print | Product List | Glossary On
Versions: 1 2 3 4 5 6 7 8 9 10 11 12 13 14 15 16 17 18 19 20 21 22 23 24 25 26 27 28 29 30 31 32 33 34 35 36 37 38 39 40 41 42 43 44 45 46 47 48 49 50
000
ASUS43 KDMX 170901
RWRIA

WEATHER ROUNDUP FOR IOWA
NATIONAL WEATHER SERVICE DES MOINES IA
400 AM CDT THU AUG 17 2017

NOTE: "FAIR" INDICATES FEW OR NO CLOUDS BELOW 12,000 FEET WITH NO
SIGNIFICANT WEATHER AND/OR OBSTRUCTIONS TO VISIBILITY.

* - THESE STATIONS ARE NOT NWS STATIONS...THUS NOT UNDER NWS
QUALITY CONTROL.  THEY ALSO DO NOT REPORT WEATHER SUCH
AS PRECIPITATION OR FOG.

IAZ001>003-012>014-020>022-031>034-043>046-171000-
   NORTHWEST IOWA

CITY           SKY/WX    TMP DP  RH WIND       PRES   REMARKS
CARROLL *      CLOUDY    66  64  94 W12       29.75F
DENISON *      CLOUDY    66  64  94 W9G15     29.80S
LE MARS *      CLOUDY    66  64  94 W10G16    29.77S
ORANGE CITY *  CLOUDY    66  66 100 W10       29.76R
SHELDON *      CLOUDY    66  64  94 W12       29.72S
SIOUX CITY     CLOUDY    67  65  93 W9        29.78S
SPENCER        CLOUDY    66  64  93 W10       29.71S
STORM LAKE *   CLOUDY    66  64  94 W9G15     29.74S
$$

IAZ055>058-069>071-079>083-090>094-171000-
   SOUTHWEST IOWA

CITY           SKY/WX    TMP DP  RH WIND       PRES   REMARKS
ATLANTIC *     CLOUDY    64  63  94 W8        29.81R
AUDUBON *      CLOUDY    64  61  88 SW6       29.80S
CLARINDA *     CLEAR     63  61  94 SW5       29.85S
COUNCIL BLFS * CLEAR     64  64 100 W8        29.82S
CRESTON *      CLEAR     64  63  94 W10       29.82S
HARLAN  *      CLOUDY    64  64 100 W14G20    29.84R
LAMONI           N/A     66  64  93 W10       29.81R
RED OAK *      CLEAR     64  61  88 W7        29.83S
SHENANDOAH *   CLEAR     63  61  94 SW5       29.84F
$$

IAZ047>049-059>061-072>074-084-171000-
   CENTRAL IOWA

CITY           SKY/WX    TMP DP  RH WIND       PRES   REMARKS
AMES           CLOUDY    66  65  96 W10       29.73F
ANKENY *       MOCLDY    66  63  88 W9        29.76S
BOONE *        CLOUDY    66  63  88 SW9       29.74R
CHARITON *     CLEAR     66  64  94 W9        29.78R
DES MOINES     CLOUDY    67  64  90 W12       29.76R
GRINNELL*      CLEAR     65  64  93 SW7       29.76S
KNOXVILLE *    CLEAR     66  64  94 SW8       29.76R
NEWTON *       PTCLDY    64  64 100 SW5       29.75S
PELLA *        CLEAR     68  64  88 W8        29.77R
PERRY *        CLOUDY    66  65  95 W10       29.76R
$$

IAZ004>006-015-016-023>025-035-036-171000-
   NORTH CENTRAL IOWA

CITY           SKY/WX    TMP DP  RH WIND       PRES   REMARKS
ALGONA *       CLOUDY    66  66 100 SW9       29.70R
CLARION *      CLOUDY    66  66 100 W10       29.70S
ESTHERVILLE    CLOUDY    65  64  97 W13G22    29.67S
FORT DODGE *   CLOUDY    66  63  88 W9        29.72S
MASON CITY     CLOUDY    67  64  90 SW12      29.68S
FOREST CITY *  CLOUDY    68  64  88 W7        29.67S
WEBSTER CITY * CLOUDY    66  64  94 W10       29.70S
IOWA FALLS *   CLOUDY    67  64  91 SW7       29.72F
$$

IAZ007>011-017>019-026>030-037>042-050>054-066-171000-
   NORTHEAST IOWA

CITY           SKY/WX    TMP DP  RH WIND       PRES   REMARKS
CHARLES CITY * CLOUDY    66  66 100 SW10G16   29.67F
CLINTON *      MOCLDY    71  69  93 S9        29.76R
DECORAH *      MOCLDY    66  64  94 VRB7G14   29.66F
MONTICELLO *   PTCLDY    70  68  94 SW6       29.72S
OELWEIN *      CLOUDY    66  66 100 SW8G15    29.70F
$$

IAZ064-065-067-068-078-171000-
   EAST CENTRAL IOWA

CITY           SKY/WX    TMP DP  RH WIND       PRES   REMARKS
MUSCATINE *    CLOUDY    73  70  88 SW9       29.75S
$$

IAZ062-063-075>077-085>089-095>099-171000-
   SOUTHEAST IOWA

CITY           SKY/WX    TMP DP  RH WIND       PRES   REMARKS
BURLINGTON     PTCLDY    71  70  96 SW8       29.77F
FAIRFIELD *    CLOUDY    72  70  94 SW6       29.76S
FORT MADISON * MOCLDY    72  70  94 SW10      29.79S
KEOKUK *       CLOUDY    72  68  88 SW10      29.78S
OSKALOOSA *      N/A     67  65  94 SW6       29.77S
OTTUMWA        CLOUDY    70  68  93 SW6       29.76S
WASHINGTON *   CLOUDY    73  72  94 SW6       29.76F
$$

ABBREVIATIONS USED IN REMARKS
   TC - TEMPERATURES IN CELSIUS
  WCI - WIND CHILL INDEX
   HX - HEAT INDEX
  VSB - VISIBILITY
$$




USA.gov is the U.S. government's official web portal to all federal, state and local government web resources and services.